| time (UTC) | temp F | wind direction | speed MPH | gust MPH | rain 1hr in | rain 24hr in | rain mn in | humidity % | barometer mb |
| 20260903214003 | 65 | 314 | 0.0 | 3.0 | 0.00 | 0.07 | 0.07 | 91 | 1011.6 |
| 20260903213503 | 65 | 314 | 0.0 | 2.0 | 0.00 | 0.07 | 0.07 | 91 | 1011.6 |
| 20260903213003 | 65 | 315 | 0.0 | 2.0 | 0.00 | 0.07 | 0.07 | 90 | 1011.8 |
| 20260903212502 | 65 | 326 | 0.0 | 3.0 | 0.00 | 0.07 | 0.07 | 90 | 1011.7 |
| 20260903212002 | 65 | 326 | 1.0 | 3.0 | 0.00 | 0.07 | 0.07 | 91 | 1011.6 |
| 20260903211502 | 65 | 351 | 1.0 | 3.0 | 0.00 | 0.07 | 0.07 | 91 | 1011.7 |
| 20260903211001 | 65 | 30 | 1.0 | 3.0 | 0.00 | 0.07 | 0.07 | 91 | 1011.5 |
| 20260903210501 | 65 | 34 | 2.0 | 3.0 | 0.00 | 0.07 | 0.07 | 91 | 1011.6 |
| 20260903210001 | 65 | 44 | 1.0 | 3.0 | 0.00 | 0.07 | 0.07 | 91 | 1011.6 |
| 20260903205502 | 65 | 67 | 1.0 | 3.0 | 0.00 | 0.07 | 0.07 | 92 | 1011.7 |
| 20260903205101 | 65 | 100 | 0.0 | 2.0 | 0.00 | 0.07 | 0.07 | 92 | 1011.7 |
| 20260903204606 | 65 | 100 | 0.0 | 3.0 | 0.00 | 0.07 | 0.07 | 92 | 1011.8 |
| 20260903204058 | 65 | 100 | 0.0 | 3.0 | 0.00 | 0.07 | 0.07 | 92 | 1011.7 |
| 20260903203558 | 65 | 105 | 1.0 | 4.0 | 0.00 | 0.07 | 0.07 | 92 | 1011.7 |
| 20260903203058 | 64 | 110 | 2.0 | 4.0 | 0.00 | 0.07 | 0.07 | 92 | 1011.8 |
| 20260903202558 | 64 | 120 | 1.0 | 4.0 | 0.00 | 0.07 | 0.07 | 92 | 1011.8 |
| 20260903202059 | 64 | 197 | 1.0 | 5.0 | 0.00 | 0.07 | 0.07 | 92 | 1011.8 |
| 20260903201558 | 64 | 339 | 2.0 | 5.0 | 0.00 | 0.07 | 0.07 | 92 | 1011.8 |
| 20260903201056 | 64 | 351 | 2.0 | 4.0 | 0.00 | 0.07 | 0.07 | 92 | 1011.9 |
| 20260903200556 | 64 | 355 | 2.0 | 4.0 | 0.00 | 0.07 | 0.07 | 92 | 1011.9 |
| 20260903200115 | 64 | 355 | 2.0 | 4.0 | 0.00 | 0.07 | 0.07 | 93 | 1011.9 |
| 20260903195559 | 64 | 340 | 1.0 | 4.0 | 0.00 | 0.07 | 0.07 | 93 | 1011.9 |
| 20260903195055 | 64 | 336 | 1.0 | 5.0 | 0.00 | 0.07 | 0.07 | 93 | 1012.0 |
| 20260903194556 | 64 | 328 | 3.0 | 5.0 | 0.00 | 0.07 | 0.07 | 93 | 1012.1 |
| 20260903194054 | 64 | 348 | 1.0 | 4.0 | 0.00 | 0.07 | 0.07 | 93 | 1012.1 |
| 20260903193553 | 64 | 30 | 1.0 | 5.0 | 0.00 | 0.07 | 0.07 | 93 | 1012.2 |
| 20260903193057 | 64 | 16 | 1.0 | 5.0 | 0.00 | 0.07 | 0.07 | 93 | 1012.2 |
| 20260903192553 | 64 | 355 | 1.0 | 4.0 | 0.00 | 0.07 | 0.07 | 93 | 1012.3 |
| 20260903192052 | 64 | 61 | 2.0 | 4.0 | 0.00 | 0.07 | 0.07 | 93 | 1012.3 |
| 20260903191601 | 64 | 120 | 2.0 | 5.0 | 0.00 | 0.07 | 0.07 | 93 | 1012.3 |
| 20260903191050 | 64 | 120 | 2.0 | 5.0 | 0.00 | 0.07 | 0.07 | 94 | 1012.4 |
| 20260903190548 | 64 | 75 | 1.0 | 6.0 | 0.00 | 0.07 | 0.07 | 94 | 1012.4 |
| 20260903190051 | 63 | 86 | 3.0 | 6.0 | 0.00 | 0.07 | 0.07 | 94 | 1012.6 |
| 20260903185548 | 63 | 84 | 2.0 | 6.0 | 0.00 | 0.07 | 0.07 | 93 | 1012.7 |
| 20260903185048 | 63 | 83 | 2.0 | 6.0 | 0.00 | 0.07 | 0.07 | 93 | 1012.8 |
| 20260903184550 | 63 | 115 | 2.0 | 6.0 | 0.00 | 0.07 | 0.07 | 93 | 1012.8 |
| 20260903184050 | 63 | 92 | 1.0 | 6.0 | 0.00 | 0.07 | 0.07 | 94 | 1013.0 |
| 20260903183546 | 63 | 86 | 1.0 | 6.0 | 0.00 | 0.07 | 0.07 | 94 | 1013.1 |
| 20260903183052 | 63 | 109 | 2.0 | 6.0 | 0.00 | 0.07 | 0.07 | 94 | 1013.2 |
| 20260903182548 | 63 | 63 | 1.0 | 7.0 | 0.00 | 0.07 | 0.07 | 94 | 1013.1 |
| 20260903182046 | 63 | 59 | 2.0 | 7.0 | 0.00 | 0.07 | 0.07 | 94 | 1013.1 |
| 20260903181546 | 63 | 114 | 1.0 | 7.0 | 0.00 | 0.07 | 0.07 | 93 | 1013.3 |
| 20260903181045 | 63 | 47 | 1.0 | 7.0 | 0.00 | 0.07 | 0.07 | 93 | 1013.3 |
| 20260903180547 | 63 | 90 | 0.0 | 4.0 | 0.00 | 0.07 | 0.07 | 94 | 1013.4 |
| 20260903180046 | 63 | 80 | 1.0 | 5.0 | 0.00 | 0.07 | 0.07 | 93 | 1013.3 |
| 20260903175544 | 63 | 63 | 1.0 | 6.0 | 0.00 | 0.07 | 0.07 | 93 | 1013.3 |
| 20260903175047 | 63 | 61 | 2.0 | 6.0 | 0.00 | 0.07 | 0.07 | 93 | 1013.2 |
| 20260903174544 | 63 | 86 | 1.0 | 7.0 | 0.00 | 0.07 | 0.07 | 93 | 1013.0 |
| 20260903174044 | 63 | 96 | 2.0 | 6.0 | 0.00 | 0.07 | 0.07 | 94 | 1013.1 |
| 20260903173543 | 63 | 169 | 0.0 | 4.0 | 0.00 | 0.07 | 0.07 | 94 | 1013.2 |
| 20260903173043 | 63 | 72 | 1.0 | 5.0 | 0.00 | 0.07 | 0.07 | 94 | 1013.4 |
| 20260903172547 | 64 | 107 | 1.0 | 5.0 | 0.00 | 0.07 | 0.07 | 94 | 1013.5 |
| 20260903172043 | 64 | 30 | 2.0 | 5.0 | 0.00 | 0.07 | 0.07 | 95 | 1013.4 |
| 20260903171555 | 64 | 43 | 1.0 | 3.0 | 0.00 | 0.07 | 0.07 | 95 | 1013.2 |
| 20260903171040 | 63 | 58 | 1.0 | 4.0 | 0.00 | 0.07 | 0.07 | 95 | 1013.3 |
| 20260903170539 | 63 | 29 | 1.0 | 5.0 | 0.00 | 0.07 | 0.07 | 95 | 1013.3 |
| 20260903170045 | 63 | 56 | 1.0 | 5.0 | 0.00 | 0.07 | 0.07 | 95 | 1013.2 |
| 20260903165539 | 63 | 304 | 1.0 | 4.0 | 0.00 | 0.07 | 0.07 | 95 | 1013.2 |
| 20260903165038 | 63 | 55 | 2.0 | 4.0 | 0.00 | 0.07 | 0.07 | 95 | 1013.3 |
| 20260903164537 | 63 | 153 | 1.0 | 7.0 | 0.00 | 0.07 | 0.07 | 95 | 1013.6 |
| 20260903164037 | 63 | 186 | 1.0 | 4.0 | 0.00 | 0.07 | 0.07 | 95 | 1013.6 |
| 20260903163537 | 63 | 112 | 1.0 | 6.0 | 0.00 | 0.07 | 0.07 | 95 | 1013.6 |
| 20260903163040 | 63 | 93 | 2.0 | 6.0 | 0.00 | 0.07 | 0.07 | 95 | 1013.7 |
| 20260903162535 | 63 | 113 | 0.0 | 5.0 | 0.00 | 0.07 | 0.07 | 95 | 1013.9 |
| 20260903162036 | 63 | 114 | 1.0 | 5.0 | 0.00 | 0.07 | 0.07 | 95 | 1013.8 |
| 20260903161535 | 63 | 98 | 1.0 | 4.0 | 0.00 | 0.07 | 0.07 | 95 | 1013.9 |
| 20260903161033 | 63 | 97 | 1.0 | 4.0 | 0.00 | 0.07 | 0.07 | 96 | 1013.8 |
| 20260903160533 | 63 | 150 | 1.0 | 6.0 | 0.01 | 0.07 | 0.07 | 96 | 1014.0 |
| 20260903160032 | 63 | 313 | 2.0 | 6.0 | 0.01 | 0.07 | 0.07 | 96 | 1014.0 |
| 20260903155534 | 62 | 111 | 1.0 | 4.0 | 0.01 | 0.07 | 0.07 | 96 | 1014.0 |
| 20260903155037 | 62 | 140 | 1.0 | 8.0 | 0.01 | 0.07 | 0.07 | 96 | 1014.2 |
| 20260903154528 | 62 | 98 | 1.0 | 8.0 | 0.01 | 0.07 | 0.07 | 95 | 1014.2 |
| 20260903154027 | 62 | 138 | 2.0 | 5.0 | 0.01 | 0.07 | 0.07 | 95 | 1014.3 |
| 20260903153526 | 62 | 9 | 1.0 | 5.0 | 0.01 | 0.07 | 0.07 | 95 | 1014.4 |
| 20260903153025 | 62 | 117 | 2.0 | 6.0 | 0.02 | 0.07 | 0.07 | 95 | 1014.5 |
| 20260903152525 | 61 | 126 | 2.0 | 4.0 | 0.02 | 0.07 | 0.07 | 95 | 1014.7 |
| 20260903152023 | 61 | 116 | 0.0 | 6.0 | 0.02 | 0.07 | 0.07 | 95 | 1014.6 |
| 20260903151523 | 61 | 116 | 2.0 | 6.0 | 0.02 | 0.07 | 0.07 | 95 | 1014.7 |
| 20260903151023 | 61 | 130 | 0.0 | 4.0 | 0.01 | 0.06 | 0.06 | 95 | 1014.9 |
| 20260903150522 | 61 | 82 | 1.0 | 4.0 | 0.01 | 0.06 | 0.06 | 95 | 1014.8 |
| 20260903150035 | 61 | 204 | 1.0 | 7.0 | 0.02 | 0.06 | 0.06 | 95 | 1014.9 |
| 20260903145523 | 61 | 82 | 1.0 | 7.0 | 0.02 | 0.06 | 0.06 | 95 | 1014.9 |
| 20260903145021 | 61 | 142 | 1.0 | 3.0 | 0.02 | 0.06 | 0.06 | 95 | 1014.9 |
| 20260903144521 | 61 | 171 | 1.0 | 3.0 | 0.02 | 0.06 | 0.06 | 95 | 1015.1 |
| 20260903144021 | 61 | 156 | 1.0 | 4.0 | 0.02 | 0.06 | 0.06 | 95 | 1015.1 |
| 20260903143523 | 61 | 142 | 1.0 | 4.0 | 0.02 | 0.06 | 0.06 | 95 | 1015.0 |
| 20260903143032 | 61 | 104 | 1.0 | 4.0 | 0.01 | 0.05 | 0.05 | 95 | 1015.1 |
| 20260903142520 | 61 | 82 | 1.0 | 6.0 | 0.01 | 0.05 | 0.05 | 95 | 1015.1 |
| 20260903142019 | 61 | 79 | 2.0 | 6.0 | 0.01 | 0.05 | 0.05 | 95 | 1015.1 |
| 20260903141519 | 61 | 90 | 1.0 | 4.0 | 0.01 | 0.05 | 0.05 | 95 | 1015.1 |
| 20260903141018 | 61 | 74 | 1.0 | 3.0 | 0.01 | 0.05 | 0.05 | 95 | 1015.2 |
| 20260903140518 | 61 | 100 | 1.0 | 4.0 | 0.01 | 0.05 | 0.05 | 95 | 1015.2 |
| 20260903140022 | 61 | 80 | 1.0 | 4.0 | 0.00 | 0.04 | 0.04 | 95 | 1015.3 |
| 20260903135521 | 61 | 192 | 1.0 | 3.0 | 0.00 | 0.04 | 0.04 | 95 | 1015.3 |
| 20260903135019 | 61 | 195 | 0.0 | 3.0 | 0.00 | 0.04 | 0.04 | 95 | 1015.2 |
| 20260903134522 | 61 | 194 | 0.0 | 4.0 | 0.00 | 0.04 | 0.04 | 95 | 1015.2 |
| 20260903134021 | 61 | 196 | 1.0 | 4.0 | 0.01 | 0.04 | 0.04 | 95 | 1015.2 |
| 20260903133517 | 61 | 171 | 0.0 | 3.0 | 0.01 | 0.04 | 0.04 | 95 | 1015.2 |
| 20260903133019 | 61 | 144 | 0.0 | 3.0 | 0.01 | 0.04 | 0.04 | 95 | 1015.3 |
| 20260903132516 | 61 | 149 | 0.0 | 1.0 | 0.01 | 0.04 | 0.04 | 95 | 1015.4 |
| 20260903132016 | 61 | 149 | 0.0 | 2.0 | 0.01 | 0.04 | 0.04 | 95 | 1015.4 |
| 20260903131516 | 61 | 150 | 0.0 | 2.0 | 0.01 | 0.04 | 0.04 | 95 | 1015.5 |
| 20260903131015 | 61 | 90 | 1.0 | 3.0 | 0.01 | 0.04 | 0.04 | 95 | 1015.3 |
| 20260903130513 | 61 | 135 | 1.0 | 3.0 | 0.01 | 0.04 | 0.04 | 95 | 1015.5 |
| 20260903130014 | 61 | 175 | 0.0 | 3.0 | 0.01 | 0.04 | 0.04 | 95 | 1015.5 |
| 20260903125511 | 61 | 178 | 1.0 | 3.0 | 0.01 | 0.04 | 0.04 | 95 | 1015.5 |
| 20260903125012 | 61 | 183 | 0.0 | 2.0 | 0.01 | 0.04 | 0.04 | 95 | 1015.6 |
| 20260903124512 | 61 | 185 | 0.0 | 3.0 | 0.01 | 0.04 | 0.04 | 95 | 1015.6 |
| 20260903124009 | 61 | 185 | 0.0 | 5.0 | 0.00 | 0.03 | 0.03 | 95 | 1015.8 |
| 20260903123508 | 61 | 162 | 0.0 | 5.0 | 0.00 | 0.03 | 0.03 | 95 | 1015.9 |
| 20260903123007 | 61 | 184 | 0.0 | 3.0 | 0.00 | 0.03 | 0.03 | 95 | 1016.0 |
| 20260903122513 | 60 | 186 | 0.0 | 2.0 | 0.00 | 0.03 | 0.03 | 95 | 1016.0 |
| 20260903122007 | 60 | 186 | 0.0 | 2.0 | 0.00 | 0.03 | 0.03 | 95 | 1016.1 |
| 20260903121510 | 60 | 186 | 0.0 | 4.0 | 0.00 | 0.03 | 0.03 | 95 | 1016.2 |
| 20260903121009 | 60 | 185 | 0.0 | 4.0 | 0.00 | 0.03 | 0.03 | 95 | 1016.1 |
| 20260903120505 | 60 | 165 | 0.0 | 4.0 | 0.00 | 0.03 | 0.03 | 95 | 1016.0 |
| 20260903120005 | 60 | 192 | 0.0 | 4.0 | 0.00 | 0.03 | 0.03 | 95 | 1016.0 |
| 20260903115508 | 60 | 184 | 1.0 | 3.0 | 0.00 | 0.03 | 0.03 | 95 | 1015.9 |
| 20260903115005 | 60 | 168 | 1.0 | 3.0 | 0.00 | 0.03 | 0.03 | 95 | 1015.8 |
| 20260903114505 | 60 | 134 | 1.0 | 4.0 | 0.00 | 0.03 | 0.03 | 95 | 1015.7 |
| 20260903114004 | 60 | 221 | 1.0 | 4.0 | 0.00 | 0.03 | 0.03 | 95 | 1015.8 |
| 20260903113504 | 60 | 139 | 0.0 | 6.0 | 0.00 | 0.03 | 0.03 | 95 | 1015.6 |
| 20260903113004 | 60 | 163 | 1.0 | 6.0 | 0.00 | 0.03 | 0.03 | 95 | 1015.8 |
| 20260903112503 | 60 | 216 | 0.0 | 5.0 | 0.00 | 0.03 | 0.03 | 95 | 1015.7 |
| 20260903112002 | 60 | 187 | 0.0 | 1.0 | 0.00 | 0.03 | 0.03 | 95 | 1015.8 |
| 20260903111502 | 60 | 188 | 0.0 | 4.0 | 0.01 | 0.03 | 0.03 | 95 | 1016.0 |
| 20260903111002 | 60 | 190 | 0.0 | 4.0 | 0.01 | 0.03 | 0.03 | 95 | 1015.9 |
| 20260903110600 | 60 | 200 | 0.0 | 2.0 | 0.01 | 0.03 | 0.03 | 95 | 1015.8 |
| 20260903110101 | 60 | 200 | 0.0 | 1.0 | 0.02 | 0.03 | 0.03 | 95 | 1015.9 |
| 20260903105559 | 60 | 202 | 0.0 | 1.0 | 0.03 | 0.03 | 0.03 | 95 | 1015.8 |
| 20260903105101 | 60 | 202 | 0.0 | 3.0 | 0.03 | 0.03 | 0.03 | 95 | 1016.0 |
| 20260903104559 | 60 | 200 | 0.0 | 0.0 | 0.03 | 0.03 | 0.03 | 95 | 1015.9 |
| 20260903104057 | 60 | 200 | 0.0 | 2.0 | 0.03 | 0.03 | 0.03 | 95 | 1016.0 |
| 20260903103557 | 60 | 200 | 0.0 | 2.0 | 0.03 | 0.03 | 0.03 | 95 | 1016.1 |
| 20260903103057 | 60 | 200 | 0.0 | 2.0 | 0.03 | 0.03 | 0.03 | 94 | 1016.1 |
| 20260903102557 | 60 | 201 | 0.0 | 4.0 | 0.03 | 0.03 | 0.03 | 95 | 1016.1 |
| 20260903102056 | 61 | 201 | 1.0 | 4.0 | 0.03 | 0.03 | 0.03 | 95 | 1016.2 |
| 20260903101602 | 61 | 186 | 2.0 | 6.0 | 0.02 | 0.02 | 0.02 | 95 | 1016.0 |
| 20260903101056 | 61 | 212 | 0.0 | 6.0 | 0.02 | 0.02 | 0.02 | 95 | 1016.1 |
| 20260903100556 | 61 | 168 | 2.0 | 4.0 | 0.02 | 0.02 | 0.02 | 95 | 1016.1 |
| 20260903100056 | 62 | 147 | 1.0 | 4.0 | 0.01 | 0.01 | 0.01 | 95 | 1016.3 |
| 20260903095555 | 62 | 200 | 0.0 | 2.0 | 0.00 | 0.00 | 0.00 | 95 | 1016.4 |
| 20260903095056 | 62 | 200 | 0.0 | 2.0 | 0.00 | 0.00 | 0.00 | 95 | 1016.3 |
| 20260903094642 | 62 | 200 | 0.0 | 2.0 | 0.00 | 0.00 | 0.00 | 95 | 1016.3 |
| 20260903094055 | 62 | 200 | 0.0 | 1.0 | 0.00 | 0.00 | 0.00 | 95 | 1016.3 |
| 20260903093554 | 62 | 200 | 0.0 | 1.0 | 0.00 | 0.00 | 0.00 | 95 | 1016.5 |
| 20260903093055 | 62 | 200 | 0.0 | 1.0 | 0.00 | 0.00 | 0.00 | 95 | 1016.5 |
| 20260903092555 | 62 | 200 | 0.0 | 0.0 | 0.00 | 0.00 | 0.00 | 95 | 1016.5 |
| 20260903092058 | 62 | 200 | 0.0 | 0.0 | 0.00 | 0.00 | 0.00 | 95 | 1016.6 |
| 20260903091600 | 62 | 200 | 0.0 | 0.0 | 0.00 | 0.00 | 0.00 | 95 | 1016.6 |
| 20260903091057 | 62 | 200 | 0.0 | 1.0 | 0.00 | 0.00 | 0.00 | 95 | 1016.4 |
| 20260903090554 | 62 | 200 | 0.0 | 1.0 | 0.00 | 0.00 | 0.00 | 95 | 1016.4 |
| 20260903090054 | 61 | 200 | 0.0 | 0.0 | 0.00 | 0.00 | 0.00 | 95 | 1016.4 |
| 20260903085553 | 61 | 200 | 0.0 | 1.0 | 0.00 | 0.00 | 0.00 | 95 | 1016.2 |
| 20260903085053 | 61 | 200 | 0.0 | 1.0 | 0.00 | 0.00 | 0.00 | 95 | 1016.3 |
| 20260903084553 | 61 | 200 | 0.0 | 3.0 | 0.00 | 0.00 | 0.00 | 95 | 1016.2 |
| 20260903084053 | 61 | 201 | 0.0 | 3.0 | 0.00 | 0.00 | 0.00 | 95 | 1016.3 |
| 20260903083553 | 61 | 202 | 0.0 | 2.0 | 0.00 | 0.00 | 0.00 | 95 | 1016.3 |
| 20260903083053 | 61 | 200 | 0.0 | 4.0 | 0.00 | 0.00 | 0.00 | 95 | 1016.2 |
| 20260903082654 | 61 | 198 | 1.0 | 4.0 | 0.00 | 0.00 | 0.00 | 95 | 1016.2 |
| 20260903082051 | 61 | 113 | 0.0 | 2.0 | 0.00 | 0.00 | 0.00 | 95 | 1016.1 |
| 20260903081551 | 61 | 106 | 0.0 | 0.0 | 0.00 | 0.00 | 0.00 | 95 | 1016.0 |
| 20260903081049 | 61 | 103 | 0.0 | 0.0 | 0.00 | 0.00 | 0.00 | 95 | 1016.0 |
| 20260903080549 | 61 | 103 | 0.0 | 0.0 | 0.00 | 0.00 | 0.00 | 94 | 1016.1 |
| 20260903080058 | 61 | 103 | 0.0 | 0.0 | 0.00 | 0.00 | 0.00 | 94 | 1016.3 |
| 20260903075548 | 61 | 103 | 0.0 | 0.0 | 0.00 | 0.00 | 0.00 | 94 | 1016.4 |
| 20260903075047 | 61 | 103 | 0.0 | 0.0 | 0.00 | 0.00 | 0.00 | 94 | 1016.4 |
| 20260903074547 | 61 | 103 | 0.0 | 0.0 | 0.00 | 0.00 | 0.00 | 94 | 1016.5 |
| 20260903074047 | 61 | 103 | 0.0 | 0.0 | 0.00 | 0.00 | 0.00 | 94 | 1016.7 |
| 20260903073547 | 61 | 103 | 0.0 | 0.0 | 0.00 | 0.00 | 0.00 | 94 | 1016.7 |
| 20260903073051 | 61 | 104 | 0.0 | 0.0 | 0.00 | 0.00 | 0.00 | 94 | 1016.6 |
| 20260903072545 | 61 | 104 | 0.0 | 0.0 | 0.00 | 0.00 | 0.00 | 94 | 1016.7 |
| 20260903072046 | 61 | 104 | 0.0 | 0.0 | 0.00 | 0.00 | 0.00 | 94 | 1016.8 |
| 20260903071545 | 61 | 104 | 0.0 | 0.0 | 0.00 | 0.00 | 0.00 | 94 | 1016.9 |
| 20260903071043 | 61 | 104 | 0.0 | 0.0 | 0.00 | 0.00 | 0.00 | 94 | 1017.1 |
| 20260903070543 | 61 | 103 | 0.0 | 0.0 | 0.00 | 0.00 | 0.00 | 94 | 1017.2 |
| 20260903070043 | 61 | 103 | 0.0 | 0.0 | 0.00 | 0.00 | 0.00 | 94 | 1017.2 |
| 20260903065542 | 61 | 103 | 0.0 | 0.0 | 0.00 | 0.00 | 0.00 | 94 | 1017.4 |
| 20260903065041 | 61 | 103 | 0.0 | 0.0 | 0.00 | 0.00 | 0.00 | 94 | 1017.4 |
| 20260903064540 | 61 | 103 | 0.0 | 0.0 | 0.00 | 0.00 | 0.00 | 94 | 1017.5 |
| 20260903064040 | 61 | 103 | 0.0 | 0.0 | 0.00 | 0.00 | 0.00 | 94 | 1017.7 |
| 20260903063541 | 61 | 103 | 0.0 | 0.0 | 0.00 | 0.00 | 0.00 | 94 | 1017.6 |
| 20260903063040 | 61 | 103 | 0.0 | 0.0 | 0.00 | 0.00 | 0.00 | 94 | 1017.6 |
| 20260903062540 | 61 | 103 | 0.0 | 0.0 | 0.00 | 0.00 | 0.00 | 94 | 1017.6 |
| 20260903062039 | 61 | 103 | 0.0 | 0.0 | 0.00 | 0.00 | 0.00 | 94 | 1017.7 |
| 20260903061539 | 61 | 103 | 0.0 | 1.0 | 0.00 | 0.00 | 0.00 | 94 | 1017.9 |
| 20260903061040 | 61 | 103 | 0.0 | 1.0 | 0.00 | 0.00 | 0.00 | 94 | 1018.0 |
| 20260903060538 | 61 | 103 | 0.0 | 1.0 | 0.00 | 0.00 | 0.00 | 94 | 1017.9 |
| 20260903060038 | 61 | 103 | 0.0 | 1.0 | 0.00 | 0.00 | 0.00 | 94 | 1018.0 |
| 20260903055536 | 61 | 103 | 0.0 | 1.0 | 0.00 | 0.00 | 0.00 | 94 | 1018.0 |
| 20260903055039 | 61 | 103 | 0.0 | 1.0 | 0.00 | 0.00 | 0.00 | 94 | 1018.2 |
| 20260903054536 | 61 | 103 | 0.0 | 1.0 | 0.00 | 0.00 | 0.00 | 94 | 1018.3 |
| 20260903054035 | 61 | 103 | 0.0 | 1.0 | 0.00 | 0.00 | 0.00 | 94 | 1018.4 |
| 20260903053538 | 61 | 103 | 0.0 | 2.0 | 0.00 | 0.00 | 0.00 | 94 | 1018.5 |
| 20260903053035 | 61 | 103 | 0.0 | 2.0 | 0.00 | 0.00 | 0.00 | 94 | 1018.4 |
| 20260903052535 | 61 | 103 | 0.0 | 1.0 | 0.00 | 0.00 | 0.00 | 94 | 1018.4 |
| 20260903052035 | 61 | 103 | 0.0 | 1.0 | 0.00 | 0.00 | 0.00 | 94 | 1018.4 |
| 20260903051535 | 61 | 103 | 0.0 | 2.0 | 0.00 | 0.00 | 0.00 | 94 | 1018.4 |
| 20260903051034 | 61 | 103 | 0.0 | 2.0 | 0.00 | 0.00 | 0.00 | 94 | 1018.3 |
| 20260903050532 | 61 | 103 | 0.0 | 2.0 | 0.00 | 0.00 | 0.00 | 94 | 1018.4 |
| 20260903050033 | 61 | 103 | 0.0 | 1.0 | 0.00 | 0.00 | 0.00 | 94 | 1018.7 |
| 20260903045532 | 61 | 103 | 0.0 | 2.0 | 0.00 | 0.00 | 0.00 | 94 | 1018.7 |
| 20260903045033 | 61 | 103 | 0.0 | 3.0 | 0.00 | 0.00 | 0.00 | 94 | 1018.6 |
| 20260903044536 | 61 | 98 | 0.0 | 3.0 | 0.00 | 0.00 | 0.00 | 93 | 1018.6 |
| 20260903044031 | 61 | 96 | 0.0 | 3.0 | 0.00 | 0.00 | 0.00 | 93 | 1018.8 |
| 20260903043529 | 61 | 96 | 0.0 | 2.0 | 0.00 | 0.00 | 0.00 | 93 | 1018.8 |
| 20260903043032 | 61 | 96 | 0.0 | 2.0 | 0.00 | 0.00 | 0.00 | 93 | 1019.1 |
| 20260903042533 | 61 | 96 | 0.0 | 1.0 | 0.00 | 0.00 | 0.00 | 93 | 1019.1 |
| 20260903042029 | 61 | 96 | 0.0 | 2.0 | 0.00 | 0.00 | 0.00 | 93 | 1019.2 |
| 20260903041528 | 61 | 96 | 0.0 | 2.0 | 0.00 | 0.00 | 0.00 | 93 | 1019.3 |
| 20260903041033 | 61 | 96 | 0.0 | 2.0 | 0.00 | 0.00 | 0.00 | 93 | 1019.3 |
| 20260903040527 | 61 | 96 | 0.0 | 2.0 | 0.00 | 0.00 | 0.00 | 93 | 1019.2 |
| 20260903040028 | 61 | 96 | 0.0 | 2.0 | 0.00 | 0.00 | 0.00 | 93 | 1019.3 |
| 20260903035528 | 61 | 96 | 0.0 | 2.0 | 0.00 | 0.00 | 0.00 | 93 | 1019.5 |
| 20260903035025 | 61 | 96 | 0.0 | 1.0 | 0.00 | 0.00 | 0.00 | 93 | 1019.3 |
| 20260903034526 | 61 | 96 | 0.0 | 1.0 | 0.00 | 0.00 | 0.00 | 93 | 1019.4 |
| 20260903034025 | 61 | 96 | 0.0 | 1.0 | 0.00 | 0.00 | 0.00 | 93 | 1019.4 |
| 20260903033526 | 61 | 96 | 0.0 | 1.0 | 0.00 | 0.00 | 0.00 | 93 | 1019.6 |
| 20260903033025 | 61 | 96 | 0.0 | 1.0 | 0.00 | 0.00 | 0.00 | 93 | 1019.6 |
| 20260903032626 | 61 | 96 | 0.0 | 1.0 | 0.00 | 0.00 | 0.00 | 93 | 1019.6 |
| 20260903032024 | 61 | 96 | 0.0 | 1.0 | 0.00 | 0.00 | 0.00 | 93 | 1019.5 |
| 20260903031523 | 61 | 96 | 0.0 | 2.0 | 0.00 | 0.00 | 0.00 | 93 | 1019.6 |
| 20260903031023 | 61 | 96 | 0.0 | 2.0 | 0.00 | 0.00 | 0.00 | 93 | 1019.6 |
| 20260903030523 | 61 | 96 | 0.0 | 1.0 | 0.00 | 0.00 | 0.00 | 93 | 1019.4 |
| 20260903030024 | 61 | 96 | 0.0 | 1.0 | 0.00 | 0.00 | 0.00 | 93 | 1019.5 |
| 20260903025522 | 61 | 96 | 0.0 | 2.0 | 0.00 | 0.00 | 0.00 | 93 | 1019.6 |
| 20260903025022 | 61 | 96 | 1.0 | 2.0 | 0.00 | 0.00 | 0.00 | 93 | 1019.6 |
| 20260903024523 | 61 | 96 | 0.0 | 1.0 | 0.00 | 0.00 | 0.00 | 93 | 1019.7 |
| 20260903024023 | 61 | 96 | 0.0 | 2.0 | 0.00 | 0.00 | 0.00 | 92 | 1019.7 |
| 20260903023522 | 61 | 96 | 0.0 | 2.0 | 0.00 | 0.00 | 0.00 | 92 | 1019.9 |
| 20260903023025 | 61 | 96 | 0.0 | 2.0 | 0.00 | 0.00 | 0.00 | 93 | 1020.0 |
| 20260903022521 | 61 | 94 | 0.0 | 1.0 | 0.00 | 0.00 | 0.00 | 92 | 1020.0 |
| 20260903022021 | 61 | 94 | 0.0 | 2.0 | 0.00 | 0.00 | 0.00 | 92 | 1020.0 |
| 20260903021522 | 61 | 87 | 0.0 | 3.0 | 0.00 | 0.00 | 0.00 | 92 | 1020.0 |
| 20260903021021 | 61 | 88 | 0.0 | 3.0 | 0.00 | 0.00 | 0.00 | 92 | 1020.0 |
| 20260903020520 | 61 | 125 | 0.0 | 2.0 | 0.00 | 0.00 | 0.00 | 92 | 1020.1 |
| 20260903020021 | 61 | 130 | 0.0 | 2.0 | 0.00 | 0.00 | 0.00 | 92 | 1020.0 |
| 20260903015522 | 61 | 130 | 0.0 | 3.0 | 0.00 | 0.00 | 0.00 | 92 | 1020.0 |
| 20260903015021 | 61 | 130 | 1.0 | 3.0 | 0.00 | 0.00 | 0.00 | 92 | 1020.0 |
| 20260903014520 | 61 | 111 | 0.0 | 3.0 | 0.00 | 0.00 | 0.00 | 92 | 1019.9 |
| 20260903014020 | 61 | 126 | 0.0 | 3.0 | 0.00 | 0.00 | 0.00 | 92 | 1020.1 |
| 20260903013520 | 60 | 112 | 0.0 | 2.0 | 0.00 | 0.00 | 0.00 | 92 | 1020.0 |
| 20260903013020 | 60 | 109 | 0.0 | 2.0 | 0.00 | 0.00 | 0.00 | 92 | 1019.7 |
| 20260903012520 | 60 | 109 | 0.0 | 3.0 | 0.00 | 0.00 | 0.00 | 92 | 1019.5 |
| 20260903012019 | 60 | 134 | 0.0 | 4.0 | 0.00 | 0.00 | 0.00 | 92 | 1019.4 |
| 20260903011520 | 60 | 163 | 1.0 | 4.0 | 0.00 | 0.00 | 0.00 | 92 | 1020.2 |
| 20260903011018 | 61 | 151 | 1.0 | 5.0 | 0.00 | 0.00 | 0.00 | 92 | 1019.6 |
| 20260903010519 | 61 | 192 | 1.0 | 6.0 | 0.00 | 0.00 | 0.00 | 92 | 1019.7 |
| 20260903010019 | 61 | 155 | 1.0 | 6.0 | 0.00 | 0.00 | 0.00 | 92 | 1020.1 |
| 20260903005518 | 61 | 169 | 1.0 | 4.0 | 0.00 | 0.00 | 0.00 | 92 | 1019.7 |
| 20260903005022 | 61 | 70 | 1.0 | 4.0 | 0.00 | 0.00 | 0.00 | 92 | 1019.8 |
| 20260903004618 | 61 | 113 | 1.0 | 3.0 | 0.00 | 0.00 | 0.00 | 91 | 1019.7 |
| 20260903004022 | 61 | 88 | 0.0 | 6.0 | 0.00 | 0.00 | 0.00 | 91 | 1020.0 |
| 20260903003518 | 61 | 78 | 1.0 | 6.0 | 0.00 | 0.00 | 0.00 | 91 | 1019.8 |
| 20260903003017 | 61 | 168 | 1.0 | 5.0 | 0.00 | 0.00 | 0.00 | 91 | 1019.3 |
| 20260903002517 | 61 | 97 | 1.0 | 8.0 | 0.00 | 0.00 | 0.00 | 91 | 1019.3 |
| 20260903002022 | 61 | 101 | 2.0 | 8.0 | 0.00 | 0.00 | 0.00 | 91 | 1019.7 |
| 20260903001516 | 61 | 79 | 1.0 | 4.0 | 0.00 | 0.00 | 0.00 | 91 | 1019.4 |
| 20260903001015 | 61 | 121 | 0.0 | 4.0 | 0.00 | 0.00 | 0.00 | 91 | 1020.2 |
| 20260903000515 | 61 | 132 | 0.0 | 3.0 | 0.00 | 0.00 | 0.00 | 91 | 1020.1 |
| 20260903000022 | 61 | 131 | 1.0 | 3.0 | 0.00 | 0.00 | 0.00 | 90 | 1019.8 |
| 20260902235517 | 61 | 118 | 0.0 | 2.0 | 0.00 | 0.00 | 0.00 | 90 | 1020.0 |
| 20260902235014 | 61 | 118 | 0.0 | 2.0 | 0.00 | 0.00 | 0.00 | 90 | 1020.7 |
| 20260902234516 | 61 | 118 | 0.0 | 2.0 | 0.00 | 0.00 | 0.00 | 90 | 1020.7 |
| 20260902234014 | 61 | 118 | 0.0 | 2.0 | 0.00 | 0.00 | 0.00 | 90 | 1020.7 |
| 20260902233514 | 61 | 119 | 0.0 | 2.0 | 0.00 | 0.00 | 0.00 | 90 | 1020.7 |
| 20260902233015 | 61 | 119 | 0.0 | 2.0 | 0.00 | 0.00 | 0.00 | 90 | 1020.5 |
| 20260902232514 | 61 | 119 | 0.0 | 2.0 | 0.00 | 0.00 | 0.00 | 90 | 1020.6 |
| 20260902232015 | 61 | 111 | 0.0 | 2.0 | 0.00 | 0.00 | 0.00 | 90 | 1020.5 |
| 20260902231522 | 61 | 115 | 0.0 | 2.0 | 0.00 | 0.00 | 0.00 | 90 | 1020.7 |
| 20260902231015 | 61 | 96 | 0.0 | 2.0 | 0.00 | 0.00 | 0.00 | 90 | 1020.6 |
| 20260902230514 | 61 | 92 | 0.0 | 2.0 | 0.00 | 0.00 | 0.00 | 90 | 1020.6 |
| 20260902230013 | 61 | 93 | 0.0 | 2.0 | 0.00 | 0.00 | 0.00 | 89 | 1020.8 |
| 20260902225513 | 61 | 92 | 0.0 | 4.0 | 0.00 | 0.00 | 0.00 | 89 | 1020.9 |
| 20260902225013 | 61 | 84 | 1.0 | 4.0 | 0.00 | 0.00 | 0.00 | 89 | 1020.9 |
| 20260902224512 | 61 | 130 | 0.0 | 3.0 | 0.00 | 0.00 | 0.00 | 89 | 1021.3 |
| 20260902224012 | 61 | 132 | 0.0 | 2.0 | 0.00 | 0.00 | 0.00 | 89 | 1021.2 |
| 20260902223512 | 61 | 130 | 0.0 | 0.0 | 0.00 | 0.00 | 0.00 | 89 | 1021.1 |
| 20260902223012 | 61 | 97 | 0.0 | 2.0 | 0.00 | 0.00 | 0.00 | 89 | 1021.2 |
| 20260902222512 | 61 | 146 | 0.0 | 7.0 | 0.00 | 0.00 | 0.00 | 89 | 1021.2 |
| 20260902222014 | 61 | 116 | 1.0 | 5.0 | 0.00 | 0.00 | 0.00 | 88 | 1021.3 |
| 20260902221516 | 61 | 59 | 0.0 | 5.0 | 0.00 | 0.00 | 0.00 | 88 | 1021.2 |
| 20260902221010 | 61 | 141 | 1.0 | 6.0 | 0.00 | 0.00 | 0.00 | 88 | 1021.1 |
| 20260902220613 | 62 | 202 | 1.0 | 6.0 | 0.00 | 0.00 | 0.00 | 88 | 1021.2 |
| 20260902220014 | 62 | 179 | 2.0 | 4.0 | 0.00 | 0.00 | 0.00 | 88 | 1021.0 |
| 20260902215509 | 62 | 130 | 0.0 | 4.0 | 0.00 | 0.00 | 0.00 | 88 | 1021.0 |
| 20260902215009 | 62 | 145 | 1.0 | 4.0 | 0.00 | 0.00 | 0.00 | 88 | 1021.1 |
| 20260902214510 | 62 | 65 | 1.0 | 4.0 | 0.00 | 0.00 | 0.00 | 88 | 1021.1 |